Location: New Canada
(47.1017°N, 68.5042°W)
Time: 11:42:52
(UTC+00:00)

BlueWalker 3 - Pass Details

Date: 04 December 2022
Orbit: 499 x 517 km, 53.2° (Epoch: 01 February)

Event Time Altitude Azimuth Distance (km) Brightness Sun altitude
Rises 21:46:14 0° 286° (WNW) 2,631 6.5 -10.0°
Maximum altitude 21:52:12 33° 2° (N) 886 3.0 -11.0°
Enters shadow 21:54:41 17° 58° (ENE) 1,364 3.5 -11.4°
